EHI
0 0 0 0 0 0 0 0 0 0 0 0 0 0 0 0 0 0 0 0 0 0 0 0 0 0 0 0 0 0 0 0 0 0 0 0 0 0 0 0 0 0 0
0 0 0 0 0 0 0 0 0 0 0 0 0 0 0 0 0 0 0 0 0 0 0 0 0 0 0 0 0 0 0 0 0 0 0 0 0 0 0 0 0 0 0
0 0 0 0 0 0 0 0 0 0 0 0 0 0 0 0 0 0 0 0 0 0 0 0 0 0 0 0 0 0 0 0 0 0 0 0 0 0 0 0 0 0 0
0 0 0 0 0 0 0 0 0 0 0 0 0 0 0 0 0 0 0 0 0 0 0 0 0 0 0 0 0 0 0 0 0 0 0 0 0 0 0 0 0 0 0
0 0 0 0 0 0 0 0 0 0 0 0 0 0 0 0 0 0 0 0 0 0 0 0 0 0 0 0 0 0 0 0 0 0 0 0 0 0 0 0 0 0 0
0 0 0 0 0 0 0 0 0 0 0 0 0 0 0 0 0 0 0 0 0 0 0 0 0 0 0 0 0 0 0 0 0 0 0 0 0 0 0 0 0 0 0
0 0 0 0 0 0 0 0 0 0 0 0 0 0 0 0 0 0 0 0 0 0 0 0 0 0 0 0 0 0 0 0 0 0 0 0 0 0 0 0 0 0 0
0 0 0 0 0 0 0 0 0 0 0 0 0 0 0 0 0 0 0 0 0 0 0 0 0 0 0 0 0 0 0 0 0 0 0 0 0 0 0 0 0 0 0
0 0 0 0 0 0 0 0 0 0 0 0 0 0 0 0 0 0 0 0 0 0 0 0 0 0 0 0 0 0 0 0 0 0 0 0 0 0 0 0 0 0 0
0 0 0 0 0 0 0 0 0 0 0 0 0 0 0 0 0 0 0 0 0 0 0 0 0 0 0 0 0 0 0 0 0 0 0 0 0 0 0 0 0 0 0
0 0 0 0 0 0 0 0 0 0 0 0 0 0 0 0 0 0 0 0 0 0 0 0 0 0 0 0 0 0 0 0 0 0 0 0 0 0 0 0 0 0 0
0 0 0 0 0 0 0 0 0 0 0 0 0 0 0 0 0 0 0 0 0 0 0 0 0 0 0 0 0 0 0 0 0 0 0 0 0 0 0 0 0 0 0
0 0 0 0 0 0 0 0 0 0 0 0 0 0 0 0 0 0 0 0 0 0 0 0 0 0 0 0 0 0 0 0 0 0 0 0 0 0 0 0 0 0 0
0 0 0 0 0 0 0 0 0 0 0 0 0 0 0 0 0 0 0 0 0 0 0 0 0 0 0 0 0 0 0 0 0 0 0 0 0 0 0 0 0 0 0
0 0 0 0 0 0 0 0 0 0 0 0 0 0 0 0 0 0 0 0 0 0 0 0 0 0 0 0 0 0 0 0 0 0 0 0 0 0 0 0 0 0 0
0 0 0 0 0 0 0 0 0 0 0 0 0 0 0 0 0 0 0 0 0 0 0 0 0 0 0 0 0 0 0 0 0 0 0 0 0 0 0 0 0 0 0
0 0 0 0 0 0 0 0 0 0 0 0 0 0 0 0 0 0 0 0 0 0 0 0 0 0 0 0 0 0 0 0 0 0 0 0 0 0 0 0 0 0 0
0 0 0 0 0 0 0 0 0 0 0 0 0 0 0 0 0 0 0 0 0 0 0 0 0 0 0 0 0 0 0 0 0 0 0 0 0 0 0 0 0 0 0
0 0 0 0 0 0 0 0 0 0 0 0 0 0 0 0 0 0 0 0 0 0 0 0 0 0 0 0 0 0 0 0 0 0 0 0 0 0 0 0 0 0 0
0 0 0 0 0 0 0 0 0 0 0 0 0 0 0 0 0 0 0 0 0 0 0 0 0 0 0 0 0 0 0 0 0 0 0 0 0 0 0 0 0 0 0
0 0 0 0 0 0 0 0 0 0 0 0 0 0 0 0 0 0 0 0 0 0 0 0 0 0 0 0 0 0 0 0 0 0 0 0 0 0 0 0 0 0 0
0 0 0 0 0 0 0 0 0 0 0 0 0 0 0 0 0 0 0 0 0 0 0 0 0 0 0 0 0 0 0 0 0 0 0 0 0 0 0 0 0 0 0
0 0 0 0 0 0 0 0 0 0 0 0 0 0 0 0 0 0 0 0 0 0 0 0 0 0 0 0 0 0 0 0 0 0 0 0 0 0 0 0 0 0 0
0 0 0 0 0 0 0 0 0 0 0 0 0 0 0 0 0 0 0 0 0 0 0 0 0 0 0 0 0 0 0 0 0 0 0 0 0 0 0 0 0 0 0
0 0 0 0 0 0 0 0 0 0 0 0 0 0 0 0 0 0 0 0 0 0 0 0 0 0 0 0 0 0 0 0 0 0 0 0 0 0 0 0 0 0 0
0 0 0 0 0 0 0 0 0 0 0 0 0 0 0 0 0 0 0 0 0 0 0 0 0 0 0 0 0 0 0 0 0 0 0 0 0 0 0 0 0 0 0
Wind_Speed
3 3 3 3 3 3 4 4 4 4 4 5 6 5 5 5 5 5 5 5 5 4 4 5 4 4 3 3 3 3 3 3 3 2 1 1 1 2 2 1 2 2 3
3 2 2 2 2 3 3 3 4 4 4 5 5 5 5 5 5 6 6 5 6 6 5 5 5 4 4 3 3 3 3 3 3 3 2 1 2 2 2 2 2 2 3
2 2 2 2 2 3 3 3 3 4 4 4 5 5 5 5 6 6 6 5 5 6 6 6 6 6 5 4 4 3 3 3 3 3 3 2 2 1 1 2 2 2 3
1 1 1 2 2 2 2 2 3 3 4 4 4 5 5 5 5 5 5 5 5 5 5 5 6 7 7 6 5 5 4 3 3 3 2 2 2 2 1 2 2 2 3
0 1 1 1 1 1 1 2 2 2 3 3 4 3 3 3 4 5 5 5 5 5 4 4 5 7 9 7 5 5 5 4 3 3 3 2 2 2 2 2 3 2 3
0 1 1 0 0 1 1 1 2 2 2 2 3 3 3 3 5 8 6 5 5 5 5 4 4 5 7 9 9 8 8 6 6 4 4 4 4 4 3 2 2 2 3
0 1 1 1 1 1 1 1 2 2 2 2 3 3 4 4 6 8 8 5 5 5 5 4 4 4 5 4 6 7 8 10 9 6 6 6 5 5 3 3 3 4 5
0 1 1 1 1 1 0 1 2 1 2 2 3 3 3 4 6 7 7 4 4 4 5 5 5 4 4 5 4 4 4 5 6 5 5 6 5 5 5 5 4 3 3
1 1 1 1 1 1 1 1 1 1 1 1 2 3 3 3 5 6 6 3 3 4 4 4 5 5 7 8 5 5 4 4 5 7 7 7 7 7 4 2 2 2 4
2 2 1 1 1 1 2 1 1 1 1 1 1 2 3 3 5 5 5 3 3 3 2 3 6 7 8 8 6 5 6 5 3 3 4 5 4 5 6 4 4 3 3
2 1 1 1 1 1 1 1 0 0 0 1 1 1 1 2 3 5 5 3 4 3 3 3 4 8 9 9 7 5 7 5 3 4 3 3 2 3 3 4 4 4 4
1 1 1 1 1 0 0 0 0 1 1 1 1 1 1 1 2 3 5 5 4 3 3 3 4 7 8 8 6 6 8 5 2 2 3 3 3 3 3 3 4 5 5
1 1 1 1 0 0 1 1 0 1 1 1 1 1 2 1 2 4 5 5 5 3 3 5 5 6 6 5 6 7 5 3 2 3 3 4 3 3 2 2 3 3 4
2 2 2 1 1 1 0 1 1 1 1 1 1 2 2 2 2 2 2 2 4 3 2 4 5 5 4 4 4 4 3 3 3 4 3 3 2 2 2 2 2 2 3
2 2 2 1 1 1 1 1 1 2 3 3 3 2 3 3 4 5 3 2 2 3 2 1 1 1 2 2 2 2 2 2 3 2 3 3 2 2 2 2 2 2 3
2 2 1 1 1 1 1 2 3 2 3 4 4 4 4 5 6 6 6 6 6 5 2 2 2 3 3 3 3 3 2 3 3 3 3 3 3 3 3 2 2 3 4
2 2 2 1 1 1 1 1 2 3 3 3 4 4 4 5 5 5 5 5 5 5 3 2 3 3 3 3 3 3 3 3 2 3 3 3 3 3 3 3 3 4 4
3 3 2 1 1 1 1 1 1 2 2 3 3 4 4 4 4 3 3 2 2 2 2 3 3 3 3 3 3 3 3 2 2 3 3 3 3 3 3 4 4 4 4
3 2 2 1 1 1 1 1 1 1 2 2 2 3 3 3 2 2 1 1 1 2 2 3 3 3 3 3 3 3 3 3 3 3 3 3 3 4 4 4 4 6 5
2 3 3 2 1 1 1 1 1 1 1 2 2 2 2 2 1 1 1 1 1 2 2 3 3 3 3 3 3 3 3 3 3 3 3 3 3 4 4 5 4 4 4
2 3 4 2 1 2 2 2 2 2 2 2 2 3 3 1 2 2 2 2 2 2 2 2 2 2 3 2 3 3 4 3 3 3 3 3 3 3 4 4 4 4 4
2 2 2 2 2 2 2 2 2 2 2 2 2 3 5 2 2 2 2 2 2 2 2 2 2 2 2 2 3 3 3 3 3 3 3 3 3 4 4 4 4 4 4
2 3 3 2 2 3 3 2 2 2 2 2 3 3 2 2 2 2 3 3 2 2 2 2 2 2 2 2 2 3 3 4 4 4 4 4 4 4 4 4 5 5 5
3 3 3 3 2 2 2 2 2 3 3 3 3 3 3 3 3 3 3 2 2 2 2 2 2 3 4 3 2 3 3 4 4 4 5 5 5 4 4 4 4 5 5
2 2 3 3 3 3 3 3 3 3 3 3 3 3 3 3 3 3 3 3 3 3 3 3 3 3 4 5 4 4 6 8 7 5 4 4 5 5 4 4 4 4 4
3 3 3 3 3 3 3 3 3 3 3 3 3 3 3 3 3 3 3 3 3 3 3 3 4 4 5 4 5 7 8 9 9 9 5 4 4 4 4 4 5 5 5
Wind_Direction
198 203 206 206 202 190 194 201 197 193 187 185 186 185 184 183 179 179 184 175 181 185 181 183 191 175 167 169 165 166 168 159 195 236 232 222 199 212 239 229 237 240 255
199 200 206 203 196 195 204 204 192 191 191 190 188 188 188 187 185 188 192 186 187 192 194 189 193 181 180 176 173 177 176 172 176 211 233 221 225 222 226 238 251 253 248
191 190 200 200 201 207 210 203 191 190 190 190 188 191 194 191 190 196 194 192 194 198 197 196 195 182 190 186 180 183 180 176 172 187 220 217 230 231 234 255 254 259 266
166 172 192 206 210 213 205 195 189 192 193 193 194 194 196 195 194 193 191 193 197 202 201 201 198 192 196 189 187 188 179 176 174 186 212 222 227 235 216 237 270 259 270
138 184 225 231 204 191 194 190 177 188 200 199 192 189 192 195 199 191 189 191 193 198 200 204 206 201 200 195 191 187 183 184 184 194 213 220 226 218 231 224 250 276 277
216 256 265 267 201 189 204 187 178 186 193 190 195 190 198 212 208 200 191 189 189 194 199 204 211 206 207 208 207 201 194 192 195 200 213 220 233 224 221 228 237 263 277
266 284 267 233 246 242 209 188 192 193 189 194 202 196 208 216 207 205 199 191 191 197 197 197 210 209 206 198 211 215 217 221 214 201 207 220 222 216 211 229 235 239 255
302 295 273 251 261 273 215 221 225 217 202 205 207 202 205 218 209 209 203 196 197 200 200 201 202 205 204 196 195 205 219 225 225 215 213 222 220 214 211 221 230 252 263
293 289 285 271 253 242 246 257 265 229 221 225 213 204 206 226 217 212 202 185 193 202 204 202 201 207 215 210 197 204 223 237 240 233 232 237 240 243 235 212 224 259 277
282 279 290 276 239 235 241 254 290 235 226 214 224 221 213 225 223 215 200 181 191 202 208 212 216 217 222 219 206 203 220 235 222 235 241 246 240 236 237 220 208 232 263
291 291 294 286 255 243 248 260 232 195 150 182 222 267 247 237 237 231 216 195 198 201 208 216 219 223 228 228 222 213 226 228 211 215 227 234 232 229 230 225 217 218 239
298 294 290 290 287 296 181 303 211 166 173 204 215 282 292 276 254 245 229 224 216 205 216 218 220 227 232 234 232 230 236 234 201 205 225 234 235 238 239 234 234 235 237
339 325 311 303 298 226 191 195 202 189 201 229 221 257 289 295 273 257 242 235 233 231 226 229 237 239 237 237 239 240 235 216 200 216 233 241 237 236 236 246 254 253 260
347 331 330 340 346 354 337 209 203 208 213 225 231 245 265 275 271 261 250 243 238 243 244 245 250 252 244 236 241 240 224 210 209 220 229 238 232 226 234 237 252 267 277
355 352 348 345 351 349 338 298 253 240 229 229 232 229 233 250 253 253 252 234 217 216 212 219 215 230 233 230 228 229 220 215 224 219 223 236 245 247 253 241 241 256 262
355 350 343 346 352 348 332 330 321 291 275 262 253 249 257 260 266 260 260 251 238 222 211 211 225 229 234 232 230 233 227 224 225 223 226 231 239 244 252 251 244 248 260
338 326 325 326 312 305 306 307 319 332 324 282 262 259 264 270 270 264 265 262 246 226 220 219 229 237 238 233 229 230 234 229 220 221 230 233 235 241 246 250 249 254 257
339 328 323 309 298 291 284 281 282 293 310 316 304 286 282 279 278 275 270 272 250 227 216 222 232 236 235 229 226 226 227 224 224 226 231 232 230 236 243 247 249 252 259
331 326 324 319 314 305 299 297 290 285 286 297 314 316 314 308 298 291 304 253 241 244 235 232 232 231 230 228 227 223 225 230 231 229 233 233 231 232 242 247 250 260 266
333 332 334 330 328 323 314 304 296 288 287 290 295 305 324 333 314 304 305 279 261 258 252 246 240 232 226 224 224 226 230 232 232 234 235 236 235 235 244 247 247 253 257
337 337 340 338 326 314 309 302 295 295 293 292 292 295 298 289 275 281 284 281 272 270 269 265 255 241 233 224 223 226 230 235 232 232 234 237 238 242 243 243 246 249 256
337 334 333 327 324 318 316 314 311 305 300 298 302 303 303 308 287 284 285 285 280 274 270 267 266 256 237 227 226 229 235 238 236 232 234 236 238 242 244 245 246 249 252
334 330 329 327 323 320 325 319 312 305 298 294 295 298 302 297 290 288 287 287 284 282 280 274 270 266 254 241 231 227 235 240 236 227 230 236 239 240 241 245 246 250 253
332 327 323 322 321 317 311 307 304 302 300 298 296 293 292 291 290 290 288 285 285 284 280 271 263 260 259 259 254 246 241 242 235 230 230 235 239 240 240 245 248 248 254
327 321 319 316 312 307 304 302 300 300 301 300 298 297 295 293 291 289 287 283 282 281 282 278 269 262 259 256 257 257 258 259 256 244 231 234 238 239 242 246 249 252 255
318 313 307 304 301 300 298 296 295 296 295 295 295 297 297 295 293 292 289 287 287 286 284 281 273 270 268 265 262 263 266 266 263 258 246 231 231 237 239 246 248 251 252